Radiation Dose at Monitoring Post of Fukushima Daini Nuclear Power Station
Date,Time,MP-1(microSv/h),MP-2(microSv/h),MP-3(microSv/h),MP-4(microSv/h),MP-5(microSv/h),MP-6(microSv/h),MP-7(microSv/h),Wind Direction,Wind Velocity(m/s),Rain
2015/09/10,00:00,0.462,0.269,0.476,0.442,0.434,0.211,0.182,east-southeast,10.4,Yes
2015/09/10,00:10,0.458,0.268,0.476,0.439,0.439,0.212,0.181,east-southeast,9.4,Yes
2015/09/10,00:20,0.463,0.267,0.481,0.436,0.441,0.212,0.182,east-southeast,8.3,No
2015/09/10,00:30,0.466,0.271,0.477,0.444,0.435,0.211,0.185,east-southeast,9.8,No
2015/09/10,00:40,0.458,0.268,0.477,0.441,0.439,0.212,0.182,east-southeast,11.2,No
2015/09/10,00:50,0.461,0.266,0.482,0.438,0.441,0.212,0.183,east-southeast,12.0,No
2015/09/10,01:00,0.465,0.270,0.478,0.445,0.435,0.213,0.184,east-southeast,10.9,No
2015/09/10,01:10,0.459,0.269,0.477,0.443,0.441,0.214,0.182,east-southeast,11.2,No
2015/09/10,01:20,0.463,0.268,0.483,0.438,0.442,0.213,0.183,east-southeast,10.8,Yes
2015/09/10,01:30,0.465,0.271,0.477,0.442,0.435,0.212,0.183,east-southeast,10.7,No
2015/09/10,01:40,0.461,0.270,0.477,0.441,0.442,0.213,0.182,east-southeast,10.1,No
2015/09/10,01:50,0.464,0.267,0.481,0.438,0.439,0.213,0.183,east,10.4,No
2015/09/10,02:00,0.467,0.271,0.478,0.444,0.435,0.212,0.183,east-southeast,10.7,No
2015/09/10,02:10,0.463,0.269,0.478,0.443,0.441,0.213,0.182,east-southeast,10.5,No
2015/09/10,02:20,0.462,0.268,0.485,0.438,0.443,0.214,0.184,east,10.7,No
2015/09/10,02:30,0.466,0.270,0.478,0.443,0.437,0.213,0.183,east-southeast,10.4,No
2015/09/10,02:40,0.464,0.269,0.478,0.445,0.443,0.213,0.182,east-southeast,11.0,No
2015/09/10,02:50,0.461,0.269,0.483,0.440,0.443,0.213,0.185,east-southeast,11.0,No
2015/09/10,03:00,0.468,0.270,0.482,0.444,0.437,0.212,0.184,east-southeast,11.1,No
2015/09/10,03:10,0.465,0.270,0.476,0.445,0.439,0.215,0.183,east-southeast,11.3,No
2015/09/10,03:20,0.461,0.268,0.484,0.441,0.443,0.214,0.184,east-southeast,10.0,No
2015/09/10,03:30,0.467,0.271,0.482,0.443,0.438,0.214,0.183,east-southeast,10.7,No
2015/09/10,03:40,0.465,0.270,0.476,0.447,0.439,0.214,0.184,east-southeast,9.5,No
2015/09/10,03:50,0.461,0.268,0.486,0.441,0.443,0.214,0.185,east-southeast,8.6,No
2015/09/10,04:00,0.467,0.271,0.485,0.441,0.437,0.214,0.182,east-southeast,8.1,No
2015/09/10,04:10,0.466,0.270,0.478,0.447,0.440,0.215,0.183,east-southeast,8.0,No
2015/09/10,04:20,0.462,0.269,0.483,0.443,0.443,0.215,0.184,east-southeast,7.6,No
2015/09/10,04:30,0.467,0.271,0.482,0.441,0.438,0.215,0.184,east-southeast,8.2,No
2015/09/10,04:40,0.466,0.271,0.479,0.446,0.440,0.215,0.184,east-southeast,9.1,No
2015/09/10,04:50,0.463,0.268,0.481,0.444,0.443,0.214,0.185,east,9.8,Yes
2015/09/10,05:00,0.465,0.272,0.486,0.440,0.438,0.215,0.183,east-southeast,9.8,Yes
2015/09/10,05:10,0.469,0.270,0.481,0.447,0.439,0.215,0.185,east-southeast,10.0,No
2015/09/10,05:20,0.463,0.268,0.480,0.445,0.445,0.213,0.184,east,9.8,No
2015/09/10,05:30,0.465,0.271,0.486,0.440,0.438,0.215,0.184,east,10.7,No
2015/09/10,05:40,0.472,0.271,0.482,0.446,0.440,0.215,0.185,east,9.8,No
2015/09/10,05:50,0.464,0.269,0.480,0.447,0.444,0.213,0.184,east,7.6,No
2015/09/10,06:00,0.462,0.273,0.485,0.443,0.440,0.214,0.183,east,8.9,No
2015/09/10,06:10,0.468,0.271,0.484,0.445,0.438,0.216,0.185,east,9.1,No
2015/09/10,06:20,0.466,0.269,0.479,0.449,0.444,0.214,0.185,east,9.2,No
2015/09/10,06:30,0.461,0.269,0.485,0.445,0.441,0.214,0.184,east,9.9,No
2015/09/10,06:40,0.467,0.273,0.486,0.440,0.438,0.214,0.186,east,10.5,No
2015/09/10,06:50,0.469,0.271,0.481,0.449,0.441,0.215,0.185,east,10.2,No
2015/09/10,07:00,0.467,0.268,0.478,0.447,0.444,0.214,0.184,east,9.2,No
2015/09/10,07:10,0.463,0.270,0.484,0.444,0.438,0.214,0.184,east,8.3,No
2015/09/10,07:20,0.468,0.273,0.483,0.441,0.437,0.216,0.185,east,7.7,No
2015/09/10,07:30,0.468,0.271,0.479,0.450,0.442,0.215,0.185,east,6.7,No
2015/09/10,07:40,0.467,0.269,0.481,0.447,0.443,0.214,0.186,east,7.0,No
2015/09/10,07:50,0.461,0.269,0.487,0.442,0.439,0.215,0.184,east-southeast,6.7,No
2015/09/10,08:00,0.469,0.273,0.483,0.441,0.438,0.216,0.184,east-southeast,7.9,No
2015/09/10,08:10,0.471,0.273,0.479,0.449,0.443,0.215,0.185,east-southeast,8.1,No
2015/09/10,08:20,0.465,0.271,0.484,0.447,0.443,0.215,0.183,east-southeast,7.9,No
2015/09/10,08:30,0.463,0.270,0.484,0.445,0.440,0.216,0.184,east,6.8,No
2015/09/10,08:40,0.462,0.269,0.484,0.442,0.439,0.217,0.186,east-southeast,6.8,No
2015/09/10,08:50,0.469,0.269,0.480,0.442,0.442,0.216,0.187,east,7.6,No
2015/09/10,09:00,0.471,0.272,0.482,0.450,0.447,0.216,0.186,east,8.5,No
2015/09/10,09:10,0.468,0.272,0.487,0.448,0.443,0.215,0.186,east,8.0,No
2015/09/10,09:20,0.467,0.272,0.486,0.445,0.439,0.216,0.186,east,8.0,No
2015/09/10,09:30,0.465,0.271,0.482,0.443,0.438,0.217,0.185,east,7.0,No
2015/09/10,09:40,0.464,0.271,0.480,0.442,0.436,0.217,0.184,east,6.9,No
2015/09/10,09:50,0.467,0.269,0.483,0.451,0.444,0.215,0.185,east,8.6,No
2015/09/10,10:00,0.472,0.272,0.488,0.449,0.445,0.216,0.187,east,7.9,No
2015/09/10,10:10,0.471,0.273,0.484,0.447,0.444,0.216,0.186,east-southeast,7.4,No
2015/09/10,10:20,0.467,0.273,0.481,0.444,0.441,0.217,0.185,east-southeast,6.6,Yes
2015/09/10,10:30,0.463,0.271,0.482,0.445,0.438,0.217,0.184,east-southeast,6.2,Yes
2015/09/10,10:40,0.468,0.269,0.485,0.449,0.444,0.214,0.186,south,5.1,Yes
2015/09/10,10:50,0.469,0.271,0.481,0.441,0.441,0.214,0.185,south-southeast,4.2,Yes
2015/09/10,11:00,0.461,0.269,0.475,0.439,0.437,0.216,0.183,east-southeast,6.2,Yes
2015/09/10,11:10,0.465,0.269,0.484,0.443,0.441,0.213,0.183,east,6.4,Yes
2015/09/10,11:20,0.466,0.272,0.477,0.441,0.439,0.213,0.185,east,5.5,Yes
2015/09/10,11:30,0.463,0.271,0.474,0.435,0.435,0.214,0.183,east,5.0,No
2015/09/10,11:40,0.463,0.268,0.477,0.442,0.440,0.214,0.184,south-southwest,2.8,Yes
2015/09/10,11:50,0.463,0.269,0.474,0.437,0.439,0.211,0.184,east-southeast,5.7,Yes
2015/09/10,12:00,0.459,0.268,0.468,0.429,0.433,0.212,0.180,east,7.6,Yes
2015/09/10,12:10,0.456,0.265,0.470,0.434,0.433,0.211,0.182,east,3.1,Yes
2015/09/10,12:20,0.461,0.268,0.469,0.431,0.435,0.210,0.181,northwest,1.6,Yes
2015/09/10,12:30,0.458,0.268,0.466,0.426,0.432,0.211,0.180,northwest,2.8,Yes
2015/09/10,12:40,0.452,0.264,0.467,0.423,0.431,0.207,0.178,west-southwest,3.3,Yes
2015/09/10,12:50,0.446,0.261,0.450,0.406,0.423,0.201,0.174,west,5.2,Yes
2015/09/10,13:00,0.434,0.259,0.425,0.396,0.411,0.199,0.172,west,8.9,Yes
2015/09/10,13:10,0.442,0.262,0.442,0.415,0.423,0.203,0.177,west,8.8,Yes
2015/09/10,13:20,0.449,0.265,0.450,0.418,0.424,0.203,0.175,west,6.0,Yes
2015/09/10,13:30,0.444,0.263,0.445,0.414,0.421,0.204,0.179,northwest,5.7,Yes
2015/09/10,13:40,0.450,0.264,0.458,0.427,0.430,0.203,0.179,north-northwest,5.7,Yes
2015/09/10,13:50,0.452,0.266,0.457,0.427,0.427,0.205,0.177,north,5.3,Yes
2015/09/10,14:00,0.440,0.260,0.448,0.414,0.421,0.201,0.176,northwest,2.8,Yes
2015/09/10,14:10,0.443,0.262,0.446,0.418,0.427,0.202,0.177,north,4.6,Yes
2015/09/10,14:20,0.445,0.264,0.448,0.420,0.424,0.205,0.177,north,3.1,Yes
2015/09/10,14:30,0.443,0.263,0.453,0.422,0.429,0.203,0.179,north-northeast,4.1,Yes
2015/09/10,14:40,0.451,0.266,0.460,0.427,0.430,0.203,0.178,north,3.6,Yes
2015/09/10,14:50,0.446,0.265,0.453,0.421,0.426,0.203,0.178,north,3.5,Yes
2015/09/10,15:00,0.446,0.264,0.461,0.425,0.434,0.205,0.179,north-northeast,7.3,Yes
2015/09/10,15:10,0.453,0.267,0.463,0.430,0.433,0.206,0.179,northeast,7.0,Yes
2015/09/10,15:20,0.452,0.264,0.462,0.428,0.431,0.206,0.179,northeast,7.6,No
2015/09/10,15:30,0.453,0.266,0.468,0.432,0.438,0.206,0.180,northeast,8.1,No
2015/09/10,15:40,0.456,0.268,0.473,0.435,0.436,0.207,0.180,northeast,7.8,No
2015/09/10,15:50,0.452,0.267,0.468,0.432,0.431,0.207,0.180,northeast,8.1,No
2015/09/10,16:00,0.456,0.267,0.470,0.433,0.440,0.208,0.180,northeast,7.9,Yes
2015/09/10,16:10,0.458,0.267,0.472,0.440,0.437,0.208,0.179,northeast,7.8,Yes
2015/09/10,16:20,0.455,0.266,0.468,0.437,0.432,0.207,0.181,northeast,7.8,Yes
2015/09/10,16:30,0.457,0.267,0.472,0.436,0.439,0.208,0.180,northeast,8.9,Yes
2015/09/10,16:40,0.461,0.267,0.477,0.441,0.436,0.208,0.179,northeast,9.2,Yes
2015/09/10,16:50,0.457,0.265,0.472,0.437,0.434,0.209,0.181,northeast,9.8,Yes
2015/09/10,17:00,0.458,0.267,0.472,0.435,0.440,0.208,0.180,northeast,9.5,No
2015/09/10,17:10,0.461,0.269,0.478,0.441,0.437,0.211,0.181,east-northeast,9.0,No
2015/09/10,17:20,0.457,0.266,0.474,0.439,0.435,0.208,0.182,northeast,8.0,Yes
2015/09/10,17:30,0.458,0.268,0.476,0.437,0.438,0.209,0.180,east-northeast,8.9,No
2015/09/10,17:40,0.459,0.268,0.475,0.440,0.437,0.209,0.181,east-northeast,10.2,Yes
2015/09/10,17:50,0.454,0.264,0.469,0.433,0.428,0.207,0.180,east-northeast,7.5,Yes
2015/09/10,18:00,0.455,0.267,0.470,0.430,0.437,0.210,0.178,east-northeast,6.9,Yes
2015/09/10,18:10,0.457,0.267,0.475,0.437,0.436,0.210,0.181,east-northeast,6.4,No
2015/09/10,18:20,0.456,0.264,0.469,0.433,0.433,0.208,0.180,east-northeast,6.4,No
2015/09/10,18:30,0.458,0.268,0.471,0.433,0.439,0.210,0.180,east-northeast,6.1,No
2015/09/10,18:40,0.461,0.267,0.476,0.440,0.436,0.211,0.181,east-northeast,6.3,No
2015/09/10,18:50,0.456,0.264,0.471,0.436,0.434,0.211,0.181,east,5.4,No
2015/09/10,19:00,0.459,0.269,0.471,0.436,0.440,0.212,0.181,east,5.5,No
2015/09/10,19:10,0.462,0.266,0.477,0.442,0.437,0.211,0.182,east,6.3,Yes
2015/09/10,19:20,0.458,0.265,0.474,0.437,0.432,0.209,0.180,east,6.0,Yes
2015/09/10,19:30,0.454,0.267,0.471,0.433,0.438,0.210,0.180,east,6.1,Yes
2015/09/10,19:40,0.460,0.266,0.477,0.439,0.435,0.211,0.181,east,5.4,Yes
2015/09/10,19:50,0.455,0.265,0.473,0.438,0.432,0.210,0.181,east-southeast,5.6,No
2015/09/10,20:00,0.455,0.268,0.471,0.433,0.441,0.210,0.180,east-southeast,5.8,No
2015/09/10,20:10,0.460,0.267,0.478,0.440,0.438,0.210,0.182,east-southeast,6.3,No
2015/09/10,20:20,0.458,0.264,0.476,0.439,0.433,0.210,0.182,east-southeast,6.9,No
2015/09/10,20:30,0.456,0.268,0.472,0.435,0.441,0.211,0.179,east-southeast,6.4,No
2015/09/10,20:40,0.462,0.268,0.479,0.440,0.437,0.211,0.182,east-southeast,5.9,No
2015/09/10,20:50,0.458,0.266,0.476,0.441,0.431,0.211,0.181,east-southeast,6.0,Yes
2015/09/10,21:00,0.458,0.268,0.471,0.436,0.439,0.211,0.182,east-southeast,5.6,Yes
2015/09/10,21:10,0.464,0.268,0.479,0.439,0.440,0.211,0.182,east-southeast,5.2,Yes
2015/09/10,21:20,0.460,0.265,0.477,0.443,0.434,0.212,0.182,east-southeast,5.4,No
2015/09/10,21:30,0.457,0.268,0.473,0.439,0.439,0.211,0.181,east-southeast,4.6,No
2015/09/10,21:40,0.463,0.269,0.479,0.437,0.441,0.212,0.183,east-southeast,5.0,No
2015/09/10,21:50,0.462,0.266,0.480,0.443,0.436,0.211,0.181,east-southeast,4.0,No
2015/09/10,22:00,0.458,0.268,0.474,0.441,0.438,0.211,0.180,east-southeast,4.0,No
2015/09/10,22:10,0.458,0.268,0.478,0.436,0.441,0.211,0.182,east-southeast,3.2,No
2015/09/10,22:20,0.461,0.266,0.479,0.443,0.436,0.211,0.183,east-southeast,3.8,Yes
2015/09/10,22:30,0.460,0.269,0.475,0.441,0.437,0.212,0.182,east-southeast,4.1,Yes
2015/09/10,22:40,0.458,0.268,0.476,0.437,0.443,0.212,0.183,east-southeast,5.0,Yes
2015/09/10,22:50,0.466,0.268,0.481,0.444,0.436,0.211,0.182,east-southeast,4.5,Yes
2015/09/10,23:00,0.461,0.267,0.477,0.445,0.436,0.212,0.182,east-southeast,4.4,Yes
2015/09/10,23:10,0.457,0.270,0.476,0.438,0.442,0.213,0.183,east-southeast,4.9,Yes
2015/09/10,23:20,0.463,0.268,0.482,0.441,0.438,0.211,0.182,east-southeast,3.6,Yes
2015/09/10,23:30,0.458,0.267,0.475,0.443,0.434,0.211,0.181,east-southeast,4.7,Yes
2015/09/10,23:40,0.456,0.268,0.471,0.437,0.442,0.212,0.182,east,4.8,Yes
2015/09/10,23:50,0.463,0.267,0.481,0.437,0.436,0.211,0.181,east-southeast,5.6,Yes
